Location: Dortmund
(51.5019°N, 7.6520°E)
Time: 03:54:37
(UTC+01:00)

Envisat - Visible Passes

Search period start: 18 November 2017 00:00
Search period end: 28 November 2017 00:00
Orbit: 764 x 766 km, 98.2° (Epoch: 17 November)

Date Brightness Start Highest point End Pass type
(mag) Time Alt. Az. Time Alt. Az. Time Alt. Az.
18 Nov 4.5 18:46:43 20° NNE 18:46:43 20° NNE 18:48:49 10° N visible
18 Nov 5.1 20:26:56 20° NNW 20:26:56 20° NNW 20:28:28 10° NNW visible
19 Nov 4.8 18:09:40 13° NE 18:09:40 13° NE 18:11:08 10° NNE visible
19 Nov 4.7 19:49:53 23° N 19:49:53 23° N 19:51:45 10° N visible
20 Nov 4.6 19:12:50 21° NNE 19:12:50 21° NNE 19:14:46 10° N visible
20 Nov 5.6 20:53:02 14° NNW 20:53:02 14° NNW 20:53:53 10° NNW visible
21 Nov 4.7 18:35:46 17° NNE 18:35:46 17° NNE 18:37:29 10° N visible
21 Nov 5.1 20:15:59 19° NNW 20:15:59 19° NNW 20:17:23 10° NNW visible
22 Nov 4.9 17:58:43 11° NE 17:58:43 11° NE 17:59:29 10° NNE visible
22 Nov 4.8 19:38:55 21° N 19:38:55 21° N 19:40:35 10° N visible
23 Nov 4.7 19:01:51 19° NNE 19:01:51 19° NNE 19:03:32 10° N visible
23 Nov 5.5 20:42:03 14° NNW 20:42:03 14° NNW 20:42:52 10° NNW visible
24 Nov 4.8 18:24:47 14° NNE 18:24:47 14° NNE 18:26:07 10° NNE visible
24 Nov 5.1 20:04:59 18° NNW 20:04:59 18° NNW 20:06:16 10° NNW visible
25 Nov 4.8 19:27:55 19° N 19:27:55 19° N 19:29:24 10° N visible
25 Nov 5.9 21:08:08 10° NNW 21:08:08 10° NNW 21:08:10 10° NNW visible
26 Nov 6.2 07:25:42 10° ENE 07:26:50 11° E 07:27:59 10° E visible
26 Nov 4.8 18:50:50 17° NNE 18:50:50 17° NNE 18:52:15 10° N visible
26 Nov 5.5 20:31:03 14° NNW 20:31:03 14° NNW 20:31:49 10° NNW visible
27 Nov 4.9 18:13:46 13° NNE 18:13:46 13° NNE 18:14:41 10° NNE visible
27 Nov 5.1 19:53:58 17° N 19:53:58 17° N 19:55:08 10° NNW visible
